Home   Weather   Montreux   Past weeks

Flag for Switzerland Past Weather in Montreux, Vaud, Switzerland — Yesterday and Last 2 Weeks

Now
27 °F

Chilly.


Feels Like: 27 °F
Forecast: 8 / 15 °F
Wind: 1 mph from Southeast

Location: Aigle

Current Time: Jan 16, 2017 at 4:09:09 pm

Latest Report: Jan 16, 2017 at 3:00 pm


Visibility: N/A

Pressure: 30.17 "Hg

Humidity: 62%

Dew Point: 16 °F

Location of MontreuxLocation

Past Weather in Montreux — Graph

°F

Montreux Temperature Yesterday

Maximum temperature yesterday: 31 °F (at 1:00 pm)
Minimum temperature yesterday: 11 °F (at 11:00 pm)
Average temperature yesterday: 25 °F

High & Low Weather Summary for the Past Weeks

 TemperatureHumidityPressure
High46 °F (Jan 13, 2:00 am)100% (Jan 8, 6:00 pm)30.66 "Hg (Jan 8, 6:00 pm)
Low11 °F (Jan 15, 11:00 pm)47% (Jan 13, 3:00 am)29.67 "Hg (Jan 13, 12:00 am)
Average30 °F83%30.25 "Hg
* Reported Jan 1 2:00 pm — Jan 16 2:00 pm, Montreux, Weather by CustomWeather, © 2017

Note: Actual official high and low records may vary slightly from our data, if they occured in-between our weather recording intervals... More about our weather records

Advertising

Montreux Weather History for the Previous 24 Hours

Scroll right to see more
 ConditionsComfort  
Time TempWeatherWind HumidityBarometerVisibility
2:00 pm
Mon, Jan 16
28 °FChilly.2 mph60%30.18 "HgN/A
1:00 pm26 °FPassing clouds.2 mph62%30.20 "Hg25 mi
12:00 pm25 °FCold.1 mph62%30.22 "HgN/A
11:00 am20 °FCold.5 mph73%30.24 "HgN/A
10:00 am21 °FSunny.8 mph76%30.24 "Hg25 mi
9:00 am18 °FCold.5 mph81%30.24 "HgN/A
8:00 am22 °FCold.7 mph71%30.22 "HgN/A
7:00 am22 °FPassing clouds.7 mph76%30.21 "Hg16 mi
6:00 am23 °FCold.8 mph69%30.21 "HgN/A
5:00 am22 °FCold.7 mph81%30.21 "HgN/A
4:00 am19 °FPassing clouds.9 mph88%30.22 "Hg12 mi
3:00 am23 °FCold.8 mph86%30.24 "HgN/A
2:00 am19 °FCold.5 mph84%30.25 "HgN/A
1:00 am20 °FCold.6 mph89%30.25 "HgN/A
12:00 am16 °FCold.5 mph90%30.28 "HgN/A
11:00 pm
Sun, Jan 15
11 °FCold.3 mph100%30.31 "HgN/A
10:00 pm17 °FCold.2 mph100%30.29 "HgN/A
9:00 pm26 °FChilly.1 mph96%30.26 "HgN/A
8:00 pm24 °FCold.3 mph96%30.29 "HgN/A
7:00 pm20 °FOvercast.1 mph100%30.30 "Hg10 mi
6:00 pm29 °FChilly.2 mph90%30.27 "HgN/A
5:00 pm28 °FChilly.1 mph95%30.27 "HgN/A
4:00 pm30 °FPartly sunny.2 mph72%30.26 "Hg10 mi
Weather by CustomWeather, © 2017

See weather overviewHow to use our weather pages